TimeCDT,TemperatureF,Dew PointF,Humidity,Sea Level PressureIn,VisibilityMPH,Wind Direction,Wind SpeedMPH,Gust SpeedMPH,PrecipitationIn,Events,Conditions,WindDirDegrees,DateUTC
12:51 AM,60.1,51.1,72,30.14,10.0,ESE,8.1,-,N/A,,Clear,120,2011-10-10 05:51:00
1:51 AM,60.1,52.0,75,30.13,10.0,Calm,Calm,-,N/A,,Partly Cloudy,0,2011-10-10 06:51:00
2:51 AM,57.2,51.8,82,30.15,10.0,ESE,8.1,-,N/A,,Partly Cloudy,120,2011-10-10 07:51:00
3:51 AM,57.0,51.1,81,30.12,10.0,ESE,6.9,-,N/A,,Partly Cloudy,110,2011-10-10 08:51:00
4:51 AM,57.0,50.0,77,30.12,10.0,East,4.6,-,N/A,,Partly Cloudy,100,2011-10-10 09:51:00
5:51 AM,55.9,51.1,84,30.13,10.0,ESE,8.1,-,N/A,,Partly Cloudy,120,2011-10-10 10:51:00
6:51 AM,57.0,50.0,77,30.14,10.0,ESE,4.6,-,N/A,,Scattered Clouds,110,2011-10-10 11:51:00
7:51 AM,57.9,52.0,81,30.15,10.0,East,5.8,-,N/A,,Scattered Clouds,100,2011-10-10 12:51:00
8:51 AM,64.9,53.1,65,30.14,10.0,Variable,3.5,-,N/A,,Scattered Clouds,0,2011-10-10 13:51:00
9:51 AM,70.0,54.0,57,30.16,10.0,South,6.9,-,N/A,,Scattered Clouds,170,2011-10-10 14:51:00
10:51 AM,73.9,55.9,53,30.14,10.0,SSE,8.1,-,N/A,,Scattered Clouds,150,2011-10-10 15:51:00
11:51 AM,75.9,55.0,48,30.12,10.0,Variable,3.5,-,N/A,,Mostly Cloudy,0,2011-10-10 16:51:00
12:51 PM,77.0,55.9,48,30.09,10.0,ESE,9.2,-,N/A,,Mostly Cloudy,120,2011-10-10 17:51:00
1:51 PM,78.1,54.0,43,30.07,10.0,SSE,11.5,18.4,N/A,,Mostly Cloudy,160,2011-10-10 18:51:00
2:51 PM,78.1,54.0,43,30.05,10.0,South,13.8,19.6,N/A,,Mostly Cloudy,170,2011-10-10 19:51:00
3:51 PM,80.1,55.0,42,30.03,10.0,SE,10.4,-,N/A,,Mostly Cloudy,130,2011-10-10 20:51:00
4:51 PM,78.1,55.0,45,30.02,10.0,SE,9.2,-,N/A,,Mostly Cloudy,130,2011-10-10 21:51:00
5:51 PM,77.0,55.0,47,30.02,10.0,SSE,9.2,-,N/A,,Mostly Cloudy,160,2011-10-10 22:51:00
6:51 PM,75.0,55.0,50,30.02,10.0,SSE,6.9,-,N/A,,Mostly Cloudy,150,2011-10-10 23:51:00
7:51 PM,73.9,55.9,53,30.02,10.0,ESE,5.8,-,N/A,,Mostly Cloudy,120,2011-10-11 00:51:00
8:51 PM,72.0,55.9,57,30.01,10.0,SE,4.6,-,N/A,,Mostly Cloudy,130,2011-10-11 01:51:00
9:51 PM,69.1,57.0,65,30.02,10.0,SSE,3.5,-,N/A,,Mostly Cloudy,150,2011-10-11 02:51:00
10:51 PM,66.0,57.0,73,30.01,10.0,SE,6.9,-,N/A,,Scattered Clouds,130,2011-10-11 03:51:00
11:51 PM,64.9,57.0,75,30.00,10.0,SE,6.9,-,N/A,,Mostly Cloudy,130,2011-10-11 04:51:00